Weather in Donskoye

Russia / Kaliningrad Oblast     54°56′18″N   19°58′11″E
temp.,
°C
wind,
m/s
gust,
m/s
humid.,
%
clouds,
%
prec.,
mm/h
press.,
hPa
HPBL,
m
7 august, sun
sun723:00+18wnw99610 0.0 10221247
02:00+18wnw87637 0.1 10231366
05:00+18wnw67641 0.3 10231203
08:00+18wnw676691 0.4 10241171
11:00+18wnw77655 0.0 10251185
14:00+18wnw666556 0.0 10241168
17:00+18wnw456396 0.0 10241021
20:00+17wnw4463100 0.0 1024808
8 august, mon
mon823:00+18w346249 0.0 1024734
02:00+18wsw456390 0.0 1024777
05:00+18wsw4567100 0.0 1024870
08:00+18wsw446981 0.0 1024846
11:00+18w446669 0.0 1025604
14:00+18wnw44687 0.0 1025690
17:00+18n33705 0.0 1025599
20:00+18n33715 0.0 1025477
9 august, tue
tue923:00+18nne336852 0.0 1026462
02:00+18nne22705 0.0 1026525
05:00+18n22725 0.0 1026531
08:00+18n33735 0.0 1027526
11:00+18nnw33705 0.0 1027567
14:00+19nnw55720 0.0 1027693
17:00+19n56720 0.0 1027693
20:00+19nne66670 0.0 1027675
10 august, wed
wed1023:00+19n44670 0.0 1027541
02:00+19n44720 0.0 1027484
05:00+19nne44730 0.0 1027529
08:00+19nne337313 0.0 1027431
11:00+19nne3373100 0.0 1027379
14:00+19n3372100 0.0 1027298
17:00+19n4469100 0.0 1026320
20:00+19nne446786 0.0 1026307
11 august, thu
thu1123:00+19e2264100 0.0 1026215
02:00+18sse337174 0.0 1026115
05:00+18s2270100 0.0 1026130
08:00+18s22755 0.0 1026137
11:00+19w21705 0.0 1026132
14:00+20wnw33675 0.0 1025187
17:00+21nnw22616 0.0 1024169
20:00+20ne2265100 0.0 102426